Weather History for PAPG - November, 2012

Change the Weather History Date:

Thursday, November 22, 2012

  Actual Average Record
Temperature  
Mean Temperature 37 °F -  
Max Temperature 44 °F 37 °F 52 °F (1984)
Min Temperature 30 °F 30 °F 8 °F (1985)
Degree Days  
Heating Degree Days 28    
Moisture  
Dew Point 27 °F    
Average Humidity 63    
Maximum Humidity 93    
Minimum Humidity 45    
Precipitation  
Precipitation 0.00 in - - ()
Sea Level Pressure  
Sea Level Pressure 29.59 in    
Wind  
Wind Speed 8 mph (ESE)    
Max Wind Speed 16 mph    
Max Gust Speed 33 mph    
Visibility 9 miles    
Events      
Averages and records for this station are not official NWS values.
T = Trace of Precipitation, MM = Missing Value Source: NWS Daily Summary

Daily Weather History Graph

Daily Weather History Graph

Search for Another Location

Airport or City:

Trip Planner

Search our weather history database for the weather conditions in past years. The results will help you decide how hot, cold, wet, or windy it might be!

Date:

Astronomy

Nov. 22, 2012 Rise Set
Actual Time 7:48 AM AKST 3:27 PM AKST
Civil Twilight 7:03 AM AKST 4:12 PM AKST
Nautical Twilight 6:15 AM AKST 5:00 PM AKST
Astronomical Twilight 5:29 AM AKST 5:45 PM AKST
Moon 1:09 PM AKST (11/22) 1:16 AM AKST (11/22)
Length of Visible Light 9h 09m
Length of Day
7h 39m
Waxing Gibbous, 72% of the Moon is Illuminated
Nov 22
Waxing Gibbous
Nov 28
Full
Dec 6
Last Quarter
Dec 12
New
Dec 19
First Quarter

Hourly Weather History & Observations

Time (AKST) Temp. Windchill Dew Point Humidity Pressure Visibility Wind Dir Wind Speed Gust Speed Precip Events Conditions
12:16 AM 30.2 °F 26.7 °F 24.8 °F 80% 29.96 in 10.0 mi West 3.5 mph - N/A   Overcast
12:36 AM 30.2 °F - 23.0 °F 75% 29.95 in 10.0 mi Calm Calm - N/A   Overcast
12:56 AM 30.2 °F - 23.0 °F 75% 29.95 in 10.0 mi Calm Calm - N/A   Overcast
1:16 AM 30.2 °F - 21.2 °F 69% 29.94 in 10.0 mi Calm Calm - N/A   Mostly Cloudy
1:36 AM 30.2 °F 26.7 °F 21.2 °F 69% 29.94 in 10.0 mi WSW 3.5 mph - N/A   Mostly Cloudy
3:16 AM 33.8 °F 27.7 °F 21.2 °F 60% 29.89 in 10.0 mi NW 6.9 mph - N/A   Unknown
3:36 AM 33.8 °F - 23.0 °F 65% 29.88 in 10.0 mi Calm Calm - N/A   Mostly Cloudy
3:56 AM 37.4 °F 30.3 °F 21.2 °F 52% 29.86 in 10.0 mi ESE 10.4 mph - N/A   Clear
4:16 AM 37.4 °F 32.1 °F 21.2 °F 52% 29.85 in 10.0 mi SE 6.9 mph 16.1 mph N/A   Scattered Clouds
4:36 AM 37.4 °F 30.8 °F 19.4 °F 48% 29.85 in 10.0 mi SE 9.2 mph 20.7 mph N/A   Overcast
4:56 AM 37.4 °F 30.3 °F 19.4 °F 48% 29.83 in 10.0 mi SE 10.4 mph 17.3 mph N/A   Mostly Cloudy
5:16 AM 37.4 °F 30.3 °F 21.2 °F 52% 29.82 in 10.0 mi SE 10.4 mph - N/A   Scattered Clouds
5:36 AM 39.2 °F 33.0 °F 21.2 °F 49% 29.80 in 10.0 mi SSE 9.2 mph - N/A   Scattered Clouds
5:56 AM 39.2 °F 34.2 °F 21.2 °F 49% 29.79 in 10.0 mi ESE 6.9 mph - N/A   Scattered Clouds
6:16 AM 39.2 °F 33.0 °F 21.2 °F 49% 29.77 in 10.0 mi SE 9.2 mph - N/A   Mostly Cloudy
6:36 AM 41.0 °F 34.7 °F 21.2 °F 45% 29.75 in 10.0 mi ESE 10.4 mph 18.4 mph N/A   Mostly Cloudy
6:56 AM 39.2 °F 31.2 °F 21.2 °F 49% 29.73 in 10.0 mi ESE 13.8 mph 20.7 mph N/A   Mostly Cloudy
7:16 AM 41.0 °F 33.5 °F 21.2 °F 45% 29.71 in 10.0 mi ESE 13.8 mph 23.0 mph N/A   Mostly Cloudy
7:36 AM 41.0 °F 33.9 °F 21.2 °F 45% 29.69 in 10.0 mi ESE 12.7 mph 23.0 mph N/A   Mostly Cloudy
7:56 AM 39.2 °F 31.6 °F 21.2 °F 49% 29.69 in 10.0 mi SE 12.7 mph 23.0 mph N/A   Overcast
8:16 AM 39.2 °F 32.0 °F 21.2 °F 49% 29.67 in 10.0 mi ESE 11.5 mph 19.6 mph N/A   Overcast
8:36 AM 39.2 °F 32.5 °F 21.2 °F 49% 29.67 in 10.0 mi ESE 10.4 mph 23.0 mph N/A   Overcast
8:56 AM 39.2 °F 31.2 °F 21.2 °F 49% 29.65 in 10.0 mi SE 13.8 mph 25.3 mph N/A   Overcast
9:16 AM 39.2 °F 32.0 °F 23.0 °F 52% 29.64 in 10.0 mi East 11.5 mph 23.0 mph N/A   Overcast
9:36 AM 39.2 °F 31.6 °F 24.8 °F 56% 29.63 in 10.0 mi ESE 12.7 mph 21.9 mph N/A   Overcast
9:56 AM 39.2 °F 31.2 °F 24.8 °F 56% 29.60 in 10.0 mi ESE 13.8 mph 21.9 mph N/A   Overcast
10:16 AM 39.2 °F 32.5 °F 24.8 °F 56% 29.58 in 10.0 mi ESE 10.4 mph 20.7 mph N/A   Overcast
10:36 AM 39.2 °F 31.2 °F 26.6 °F 61% 29.57 in 10.0 mi ESE 13.8 mph 20.7 mph N/A   Overcast
10:56 AM 39.2 °F 31.2 °F 26.6 °F 61% 29.56 in 10.0 mi ESE 13.8 mph 21.9 mph N/A   Overcast
11:16 AM 37.4 °F 30.8 °F 28.4 °F 70% 29.55 in 10.0 mi ESE 9.2 mph 25.3 mph N/A   Overcast
11:36 AM 37.4 °F 30.3 °F 28.4 °F 70% 29.54 in 10.0 mi ESE 10.4 mph 21.9 mph N/A   Overcast
11:56 AM 37.4 °F 28.5 °F 30.2 °F 75% 29.52 in 5.0 mi ESE 15.0 mph 24.2 mph N/A   Overcast
12:16 PM 37.4 °F 28.9 °F 30.2 °F 75% 29.51 in 5.0 mi ESE 13.8 mph 26.5 mph N/A   Overcast
12:36 PM 37.4 °F 30.3 °F 30.2 °F 75% 29.51 in 5.0 mi ESE 10.4 mph 26.5 mph N/A   Overcast
12:56 PM 35.6 °F 26.2 °F 30.2 °F 81% 29.51 in 2.5 mi ESE 15.0 mph 25.3 mph N/A   Overcast
1:16 PM 37.4 °F 29.8 °F 30.2 °F 75% 29.50 in 2.5 mi ESE 11.5 mph 21.9 mph N/A   Overcast
1:36 PM 39.2 °F 33.0 °F 30.2 °F 70% 29.49 in 10.0 mi SE 9.2 mph 21.9 mph N/A   Overcast
1:56 PM 39.2 °F 32.0 °F 30.2 °F 70% 29.49 in 10.0 mi SE 11.5 mph 33.4 mph N/A   Overcast
2:16 PM 41.0 °F 33.5 °F 28.4 °F 61% 29.48 in 10.0 mi ESE 13.8 mph 24.2 mph N/A   Overcast
2:36 PM 42.8 °F 38.6 °F 28.4 °F 57% 29.48 in 10.0 mi ESE 6.9 mph 21.9 mph N/A   Overcast
2:56 PM 42.8 °F 38.6 °F 26.6 °F 53% 29.47 in 10.0 mi SE 6.9 mph 21.9 mph N/A   Overcast
3:16 PM 42.8 °F 37.0 °F 28.4 °F 57% 29.46 in 10.0 mi SE 10.4 mph 18.4 mph N/A   Overcast
3:36 PM 42.8 °F 35.1 °F 26.6 °F 53% 29.45 in 10.0 mi ESE 16.1 mph 20.7 mph N/A   Overcast
3:56 PM 42.8 °F 35.8 °F 26.6 °F 53% 29.45 in 10.0 mi SE 13.8 mph 25.3 mph N/A   Overcast
4:16 PM 42.8 °F 36.6 °F 26.6 °F 53% 29.44 in 10.0 mi ESE 11.5 mph 24.2 mph N/A   Overcast
4:36 PM 42.8 °F 36.2 °F 26.6 °F 53% 29.43 in 10.0 mi SE 12.7 mph 19.6 mph N/A   Overcast
4:56 PM 42.8 °F 35.1 °F 28.4 °F 57% 29.43 in 10.0 mi ESE 16.1 mph 23.0 mph N/A   Mostly Cloudy
5:16 PM 42.8 °F 35.8 °F 26.6 °F 53% 29.42 in 10.0 mi ESE 13.8 mph 25.3 mph N/A   Mostly Cloudy
5:36 PM 44.6 °F 37.8 °F 26.6 °F 49% 29.40 in 10.0 mi ESE 15.0 mph 23.0 mph N/A   Mostly Cloudy
5:56 PM 42.8 °F 35.4 °F 26.6 °F 53% 29.39 in 10.0 mi ESE 15.0 mph 23.0 mph N/A   Overcast
6:16 PM 42.8 °F 37.0 °F 28.4 °F 57% 29.39 in 10.0 mi SE 10.4 mph 21.9 mph N/A   Overcast
6:36 PM 41.0 °F 33.1 °F 30.2 °F 65% 29.39 in 10.0 mi ESE 15.0 mph 25.3 mph N/A   Overcast
6:56 PM 39.2 °F 31.6 °F 30.2 °F 70% 29.39 in 10.0 mi SE 12.7 mph 25.3 mph N/A   Overcast
7:16 PM 41.0 °F 33.9 °F 30.2 °F 65% 29.39 in 10.0 mi SE 12.7 mph 19.6 mph N/A   Overcast
7:36 PM 42.8 °F 35.8 °F 28.4 °F 57% 29.37 in 10.0 mi ESE 13.8 mph 20.7 mph N/A   Overcast
7:56 PM 42.8 °F 35.1 °F 28.4 °F 57% 29.39 in 10.0 mi SE 16.1 mph 23.0 mph N/A   Overcast
8:16 PM 41.0 °F 36.4 °F 32.0 °F 70% 29.41 in 10.0 mi SSE 6.9 mph 19.6 mph N/A   Overcast
8:36 PM 39.2 °F 32.0 °F 32.0 °F 75% 29.42 in 10.0 mi ESE 11.5 mph 21.9 mph N/A   Overcast
8:56 PM 39.2 °F 33.0 °F 33.8 °F 81% 29.45 in 10.0 mi ESE 9.2 mph 19.6 mph N/A   Overcast
9:16 PM 37.4 °F 33.8 °F 33.8 °F 87% 29.47 in 10.0 mi SSE 4.6 mph - N/A   Overcast
9:36 PM 37.4 °F 31.4 °F 33.8 °F 87% 29.49 in 10.0 mi East 8.1 mph - N/A   Overcast
9:56 PM 35.6 °F 27.1 °F 32.0 °F 87% 29.49 in 7.0 mi ESE 12.7 mph 20.7 mph N/A   Overcast
10:16 PM 37.4 °F 30.3 °F 32.0 °F 81% 29.50 in 10.0 mi SE 10.4 mph 24.2 mph N/A   Overcast
10:36 PM 37.4 °F 31.4 °F 32.0 °F 81% 29.51 in 10.0 mi SE 8.1 mph 18.4 mph N/A   Overcast
10:56 PM 37.4 °F 33.8 °F 32.0 °F 81% 29.51 in 10.0 mi ESE 4.6 mph - N/A   Mostly Cloudy
11:16 PM 35.6 °F 30.7 °F 32.0 °F 87% 29.52 in 5.0 mi East 5.8 mph - N/A   Overcast
11:36 PM 35.6 °F 30.7 °F 30.2 °F 81% 29.52 in 10.0 mi NW 5.8 mph - N/A   Overcast
11:56 PM 35.6 °F 30.7 °F 33.8 °F 93% 29.52 in 10.0 mi East 5.8 mph - N/A   Mostly Cloudy